Tracking 30744 objects as of 24-Jun-2025
HD Live streaming from Space Station
objects crossing your sky now

FENGYUN 1C DEB

Track FENGYUN 1C DEB now!
10-day predictions


NORAD ID: 30306
Int'l Code: 1999-025ZT
Perigee: 724.3 km
Apogee: 892.7 km
Inclination: 98.6 °
Period: 100.9 minutes
Semi major axis: 7179 km
RCS: 0.0194 m2 (small)
Launch date: May 10, 1999
Source: People's Republic of China (PRC)
Launch site: Taiyaun Space Center, China (TSC)

Note: This is SATELLITE DEBRIS
Your satellite tracking list
Your tracking list is empty




NASA's NSSDC Master Catalog

Two Line Element Set (TLE):
1 30306U 99025ZT  25174.80564371  .00001705  00000-0  66623-3 0  9999
2 30306  98.5996 218.6752 0117240 139.9680 221.0215 14.27122817952286
Source of the keplerian elements: AFSPC